Location: Arroyo Retuerta
(40.5469°N, 4.3534°W)
Time: 11:31:35
(UTC+00:00)

Meteor 1-15 Rocket - Pass Details

Date: 01 June 2020
Orbit: 840 x 907 km, 81.2° (Epoch: 05 July)

Event Time Altitude Azimuth Distance (km) Brightness Sun altitude
Rises 21:09:47 0° 354° (N) 3,545 8.3 -13.8°
Reaches altitude 10° 21:12:19 10° 358° (N) 2,599 7.5 -14.2°
Maximum altitude 21:18:10 58° 78° (ENE) 1,045 4.5 -14.9°
Enters shadow 21:21:54 22° 150° (SSE) 1,841 5.4 -15.4°
